1512932400.91,5607,0.63,71056.3,-13.71,-15.35,-15.21,0,*55
1512932402.19,5608,0.63,70956.0,-13.71,-15.57,-15.43,0,*5A
1512932403.45,5609,0.63,71038.8,-13.71,-15.57,-15.49,0,*51
1512932404.71,5610,0.63,71036.5,-13.71,-15.49,-15.43,0,*5C
1512932405.99,5611,0.63,71052.0,-13.71,-15.57,-15.43,0,*52
1512932407.22,5612,0.63,71026.8,-13.69,-15.49,-15.35,0,*56
1512932408.48,5613,0.63,71024.5,-13.71,-15.49,-15.43,0,*5F
1512932409.74,5614,0.63,71046.3,-13.69,-15.43,-15.39,0,*56
1512932411.0,5615,0.63,71042.0,-13.71,-15.63,-15.57,0,*54
1512932412.22,5616,0.63,71030.3,-13.71,-15.67,-15.67,0,*50
1512932413.51,5617,0.63,70998.8,-13.71,-15.81,-15.81,0,*51
1512932414.74,5618,0.63,70958.0,-13.71,-15.75,-15.75,0,*5E
1512932415.99,5619,0.63,70982.8,-13.75,-15.75,-15.75,0,*5B
1512932417.23,5620,0.63,70970.0,-13.75,-15.75,-15.75,0,*51
1512932418.47,5621,0.63,70980.8,-13.77,-15.71,-15.81,0,*5D
1512932419.67,5622,0.63,71006.5,-13.77,-15.71,-15.67,0,*56
1512932420.88,5623,0.63,71014.5,-13.77,-15.67,-15.63,0,*54
1512932422.09,5624,0.63,71046.0,-13.77,-15.63,-15.67,0,*53
1512932423.3,5625,0.63,71058.3,-13.77,-15.67,-15.67,0,*56
1512932424.51,5626,0.63,71052.3,-13.77,-15.71,-15.63,0,*56
1512932425.77,5627,0.63,70996.5,-13.77,-15.85,-15.85,0,*54
1512932426.98,5628,0.63,70974.5,-13.77,-15.67,-15.71,0,*5C
1512932428.2,5629,0.63,71032.0,-13.77,-15.49,-15.49,0,*5A
1512932429.44,5630,0.63,71016.8,-13.79,-15.63,-15.63,0,*5C
1512932430.68,5631,0.63,71026.8,-13.79,-15.71,-15.71,0,*5D
1512932431.92,5632,0.63,71046.8,-13.81,-15.57,-15.53,0,*5D
1512932433.16,5633,0.63,71052.5,-13.79,-15.53,-15.49,0,*54
1512932434.39,5634,0.63,71058.0,-13.81,-15.53,-15.49,0,*54
1512932435.63,5635,0.63,71012.8,-13.79,-15.71,-15.71,0,*59
1512932436.87,5636,0.63,71022.3,-13.81,-15.67,-15.57,0,*5E
1512932438.14,5637,0.63,71032.8,-13.79,-15.39,-15.25,0,*56
1512932439.42,5638,0.63,71006.5,-13.79,-15.21,-15.21,0,*54
1512932440.7,5639,0.63,71006.8,-13.79,-15.35,-15.21,0,*50
1512932441.96,5640,0.63,71040.8,-13.79,-15.21,-15.07,0,*5F
1512932443.22,5641,0.63,71038.5,-13.77,-14.79,-14.83,0,*51
1512932444.43,5642,0.63,71058.5,-13.77,-15.49,-15.49,0,*57
1512932445.7,5643,0.63,71054.5,-13.79,-15.35,-15.25,0,*59
1512932446.99,5644,0.63,71054.0,-13.79,-15.39,-15.35,0,*53
1512932448.27,5645,0.63,71084.0,-13.79,-14.97,-14.93,0,*5A
1512932449.55,5646,0.63,71118.0,-13.79,-14.97,-14.97,0,*5D
1512932450.83,5647,0.63,71128.8,-13.79,-15.21,-15.21,0,*5C
1512932452.09,5648,0.63,71136.3,-13.77,-14.97,-14.97,0,*5D
1512932453.3,5649,0.63,71078.8,-13.77,-13.19,-13.15,0,*50
1512932454.59,5650,0.63,71088.3,-13.75,-11.33,-11.07,0,*51
1512932455.82,5651,0.63,71062.5,-13.69,-11.67,-11.41,0,*5E
1512932457.06,5652,0.63,71074.8,-13.67,-13.65,-13.51,0,*50
1512932458.27,5653,0.63,71042.0,-13.65,-14.37,-14.23,0,*51
1512932459.51,5654,0.63,71042.5,-13.65,-14.47,-14.37,0,*54
1512932460.75,5655,0.63,71066.0,-13.65,-14.65,-14.47,0,*52
1512932461.99,5656,0.63,71050.8,-13.65,-14.79,-14.65,0,*5C
1512932463.2,5657,0.63,71084.5,-13.65,-14.23,-14.19,0,*59
1512932464.47,5658,0.63,71072.3,-13.65,-14.05,-14.05,0,*5F
1512932465.74,5659,0.63,71086.0,-13.65,-14.05,-14.05,0,*5E
1512932466.98,5660,0.63,71104.5,-13.65,-14.37,-14.47,0,*53
1512932468.22,5661,0.63,71074.8,-13.65,-14.37,-14.47,0,*52
1512932469.49,5662,0.63,71070.0,-13.65,-14.47,-14.51,0,*51
1512932470.73,5663,0.63,71112.5,-13.63,-14.55,-14.65,0,*52
1512932471.94,5664,0.63,71092.8,-13.63,-15.11,-15.07,0,*51
1512932473.19,5665,0.63,71052.0,-13.65,-14.97,-14.93,0,*55
1512932474.45,5666,0.63,71072.5,-13.65,-15.35,-15.35,0,*52
1512932475.69,5667,0.63,71084.8,-13.67,-15.71,-15.75,0,*55
1512932476.96,5668,0.63,71086.5,-13.67,-15.75,-15.85,0,*51
1512932478.22,5669,0.63,71080.3,-13.67,-15.71,-15.85,0,*54
1512932479.48,5670,0.63,71084.0,-13.67,-15.75,-15.89,0,*54
1512932480.74,5671,0.63,71058.0,-13.69,-15.39,-15.43,0,*55
1512932482.02,5672,0.63,71060.8,-13.71,-15.43,-15.43,0,*52
1512932483.24,5673,0.63,71054.3,-13.69,-15.25,-15.25,0,*5A
1512932484.49,5674,0.63,71038.5,-13.71,-15.21,-15.07,0,*50
1512932485.72,5675,0.63,71064.3,-13.69,-15.15,-15.01,0,*59
1512932486.96,5676,0.63,71066.5,-13.71,-15.29,-15.15,0,*59
1512932488.18,5677,0.63,71068.0,-13.69,-15.11,-15.01,0,*5F
1512932489.47,5678,0.63,71056.5,-13.71,-15.43,-15.43,0,*58
1512932490.75,5679,0.63,71048.3,-13.71,-15.43,-15.57,0,*5C
1512932492.01,5680,0.63,71100.5,-13.71,-15.35,-15.29,0,*52
1512932493.24,5681,0.63,71060.5,-13.71,-15.67,-15.67,0,*5E
1512932494.5,5682,0.63,71028.0,-13.71,-15.81,-15.75,0,*56
1512932495.75,5683,0.63,71036.3,-13.71,-15.81,-15.75,0,*57
1512932497.01,5684,0.63,71066.0,-13.75,-15.81,-15.67,0,*57
1512932498.26,5685,0.63,71110.5,-13.71,-15.81,-15.67,0,*52
1512932499.54,5686,0.63,71132.5,-13.75,-15.57,-15.57,0,*5D
1512932500.78,5687,0.63,71138.3,-13.75,-15.63,-15.49,0,*54
1512932502.0,5688,0.63,71126.8,-13.77,-15.67,-15.53,0,*56
1512932503.21,5689,0.63,71050.5,-13.77,-15.53,-15.63,0,*53
1512932504.45,5690,0.63,71058.3,-13.75,-15.49,-15.49,0,*5A
1512932505.67,5691,0.63,71058.8,-13.77,-15.49,-15.53,0,*52
1512932506.94,5692,0.63,71080.8,-13.75,-15.21,-15.21,0,*58
1512932508.22,5693,0.63,71074.3,-13.75,-13.79,-13.79,0,*59
1512932509.46,5694,0.63,71080.8,-13.75,-13.51,-13.23,0,*5B
1512932510.74,5695,0.63,71084.0,-13.71,-13.33,-13.33,0,*5B
1512932511.97,5696,0.63,71088.3,-13.71,-13.43,-13.43,0,*58
1512932513.22,5697,0.63,71072.5,-13.71,-14.61,-14.55,0,*5E
1512932514.46,5698,0.63,70982.3,-13.69,-14.83,-14.89,0,*55
1512932515.71,5699,0.63,70954.0,-13.69,-15.01,-15.01,0,*5E
1512932516.99,5700,0.63,70964.5,-13.71,-15.35,-15.43,0,*57
1512932518.25,5701,0.63,70946.5,-13.71,-15.07,-15.01,0,*51
1512932519.48,5702,0.63,70936.8,-13.69,-14.89,-14.83,0,*57
1512932520.71,5703,0.63,71042.0,-13.69,-14.89,-14.75,0,*5F
1512932521.97,5704,0.63,71038.5,-13.69,-14.83,-14.75,0,*52
1512932523.2,5705,0.63,71078.5,-13.69,-14.79,-14.61,0,*53
1512932524.43,5706,0.63,71038.8,-13.69,-14.89,-14.83,0,*53
1512932525.69,5707,0.63,71056.0,-13.69,-14.83,-14.75,0,*51
1512932526.95,5708,0.63,71046.5,-13.69,-14.97,-14.83,0,*52
1512932528.22,5709,0.63,71026.8,-13.71,-14.93,-14.79,0,*5B
1512932529.48,5710,0.63,71038.5,-13.69,-14.75,-14.75,0,*5E
1512932530.7,5711,0.63,71058.5,-13.69,-14.69,-14.75,0,*52
1512932531.96,5712,0.63,70980.0,-13.71,-14.79,-14.89,0,*5A
1512932533.23,5713,0.63,70938.5,-13.71,-14.79,-14.75,0,*58
1512932534.47,5714,0.63,71018.0,-13.71,-14.89,-14.89,0,*53
1512932535.68,5715,0.63,70998.8,-13.69,-14.89,-14.89,0,*5B
1512932536.94,5716,0.63,70990.3,-13.69,-14.83,-14.97,0,*5D
1512932538.17,5717,0.63,71062.0,-13.71,-15.15,-15.07,0,*53
1512932539.42,5718,0.63,71038.3,-13.71,-14.61,-14.75,0,*5A
1512932540.68,5719,0.63,71040.3,-13.69,-14.43,-14.43,0,*57
1512932541.88,5720,0.63,71062.5,-13.69,-14.69,-14.61,0,*55
1512932543.15,5721,0.63,71036.0,-13.71,-14.93,-15.01,0,*5F
1512932544.37,5722,0.63,71046.3,-13.69,-15.25,-15.29,0,*53
1512932545.64,5723,0.63,71036.3,-13.71,-15.21,-15.21,0,*57
1512932546.91,5724,0.63,71054.3,-13.71,-15.21,-15.21,0,*50
1512932548.16,5725,0.63,71020.5,-13.69,-14.97,-15.01,0,*56
1512932549.42,5726,0.63,71044.8,-13.69,-14.75,-14.83,0,*52
1512932550.68,5727,0.63,71042.5,-13.69,-14.75,-14.83,0,*53
1512932551.93,5728,0.63,71020.3,-13.69,-14.97,-15.01,0,*5B
1512932553.14,5729,0.63,71048.3,-13.69,-15.11,-15.25,0,*53
1512932554.35,5730,0.63,71048.5,-13.69,-15.11,-15.29,0,*57
1512932555.57,5731,0.63,71012.8,-13.71,-15.63,-15.67,0,*50
1512932556.78,5732,0.63,71012.8,-13.69,-15.53,-15.63,0,*5D
1512932557.99,5733,0.63,71040.5,-13.69,-15.15,-15.15,0,*5F
1512932559.24,5734,0.63,71062.3,-13.71,-15.07,-15.01,0,*57
1512932560.5,5735,0.63,71050.8,-13.71,-14.75,-14.65,0,*51
1512932561.78,5736,0.63,71072.3,-13.71,-14.79,-14.79,0,*53
1512932563.04,5737,0.63,71050.0,-13.69,-14.55,-14.51,0,*5F
1512932564.25,5738,0.63,71060.8,-13.69,-14.37,-14.37,0,*54
1512932565.48,5739,0.63,71078.3,-13.69,-14.61,-14.55,0,*52
1512932566.72,5740,0.63,71064.0,-13.69,-14.43,-14.29,0,*57
1512932567.95,5741,0.63,71026.8,-13.69,-14.43,-14.37,0,*59
1512932569.24,5742,0.63,71016.8,-13.67,-14.55,-14.55,0,*57
1512932570.47,5743,0.63,70984.8,-13.67,-14.29,-14.29,0,*56
1512932571.74,5744,0.63,70966.8,-13.65,-14.51,-14.51,0,*53
1512932573.02,5745,0.63,70942.5,-13.67,-14.97,-14.97,0,*50
1512932574.25,5746,0.63,70900.3,-13.65,-15.25,-15.21,0,*55
1512932575.54,5747,0.63,70884.0,-13.67,-15.39,-15.39,0,*52
1512932576.8,5748,0.63,70878.8,-13.67,-15.57,-15.63,0,*5A
1512932578.06,5749,0.63,70886.5,-13.69,-15.43,-15.43,0,*52
1512932579.32,5750,0.63,70882.8,-13.69,-15.43,-15.43,0,*5A
1512932580.54,5751,0.63,70948.3,-13.69,-15.49,-15.49,0,*5B
1512932581.76,5752,0.63,70986.8,-13.69,-15.25,-15.25,0,*58
1512932582.99,5753,0.63,71006.8,-13.71,-15.15,-15.07,0,*53
1512932584.2,5754,0.63,71020.5,-13.69,-15.15,-15.15,0,*5E
1512932585.44,5755,0.63,71042.5,-13.71,-15.29,-15.29,0,*56
1512932586.7,5756,0.63,71034.0,-13.71,-15.49,-15.43,0,*5F
1512932587.95,5757,0.63,70898.8,-13.69,-15.57,-15.43,0,*58
1512932589.21,5758,0.63,70948.0,-13.71,-15.63,-15.57,0,*5C
1512932590.49,5759,0.63,70972.0,-13.71,-15.57,-15.57,0,*5A
1512932591.75,5760,0.63,71020.3,-13.71,-15.49,-15.35,0,*5B
1512932593.01,5761,0.63,70930.5,-13.71,-15.43,-15.29,0,*5D
1512932594.25,5762,0.63,70924.0,-13.71,-15.63,-15.49,0,*5A
1512932595.51,5763,0.63,71004.3,-13.71,-15.57,-15.49,0,*5C
1512932596.77,5764,0.63,71014.3,-13.71,-15.49,-15.43,0,*5E
1512932598.02,5765,0.63,71006.5,-13.71,-15.49,-15.35,0,*5E
1512932599.27,5766,0.63,71056.3,-13.71,-15.21,-15.15,0,*51
1512932600.52,5767,0.63,71104.0,-13.71,-15.07,-14.93,0,*5B
1512932601.76,5768,0.63,71114.8,-13.71,-15.15,-15.15,0,*58
1512932603.0,5769,0.63,71046.8,-13.75,-14.89,-14.89,0,*5D
1512932604.27,5770,0.63,71026.5,-13.71,-15.01,-15.01,0,*51
1512932605.52,5771,0.63,71012.3,-13.71,-14.79,-14.89,0,*5F
1512932606.79,5772,0.63,71066.3,-13.71,-13.29,-13.19,0,*50
1512932607.99,5773,0.63,71018.8,-13.69,-13.65,-13.69,0,*57
1512932609.22,5774,0.63,70996.0,-13.69,-12.89,-12.79,0,*53
1512932610.49,5775,0.63,70996.3,-13.65,-11.63,-11.67,0,*55
1512932611.73,5776,0.63,71002.5,-13.63,-13.23,-13.33,0,*55
1512932612.99,5777,0.63,70998.8,-13.61,-14.51,-14.61,0,*54
1512932614.25,5778,0.63,71024.5,-13.61,-14.65,-14.75,0,*59
1512932615.53,5779,0.63,71008.5,-13.61,-14.75,-14.79,0,*55
1512932616.8,5780,0.63,70996.8,-13.61,-15.21,-15.29,0,*57
1512932618.01,5781,0.63,70996.3,-13.63,-15.49,-15.49,0,*5C
1512932619.25,5782,0.63,70998.8,-13.59,-15.49,-15.35,0,*5D
1512932620.54,5783,0.63,71026.8,-13.61,-15.43,-15.35,0,*5D
1512932621.79,5784,0.63,70936.0,-13.61,-15.81,-15.67,0,*53
1512932623.01,5785,0.63,70990.5,-13.63,-15.71,-15.53,0,*58
1512932624.26,5786,0.63,71012.3,-13.63,-15.39,-15.25,0,*56
1512932625.47,5787,0.63,71042.0,-13.65,-15.25,-15.11,0,*5B
1512932626.72,5788,0.63,71010.8,-13.65,-14.97,-14.79,0,*53
1512932627.98,5789,0.63,71056.8,-13.65,-14.93,-14.79,0,*56
1512932629.22,5790,0.63,71078.3,-13.65,-14.55,-14.33,0,*5A
1512932630.45,5791,0.63,71048.3,-13.63,-14.65,-14.55,0,*5E
1512932631.68,5792,0.63,71060.8,-13.63,-14.79,-14.69,0,*5F
1512932632.95,5793,0.63,71122.0,-13.63,-14.83,-14.79,0,*5A
1512932634.18,5794,0.63,71128.5,-13.63,-14.93,-14.69,0,*5D
1512932635.39,5795,0.63,71104.5,-13.63,-15.25,-15.11,0,*5E
1512932636.64,5796,0.63,71070.3,-13.63,-15.53,-15.39,0,*56
1512932637.87,5797,0.63,71072.3,-13.63,-14.93,-14.69,0,*5E
1512932639.12,5798,0.63,71096.5,-13.65,-14.93,-14.79,0,*56
1512932640.4,5799,0.63,71112.5,-13.61,-14.93,-14.79,0,*53
1512932641.67,5800,0.63,71118.0,-13.63,-14.83,-14.55,0,*51
1512932642.93,5801,0.63,71124.0,-13.63,-14.93,-14.79,0,*5F
1512932644.16,5802,0.63,71122.3,-13.63,-14.97,-14.69,0,*59
1512932645.39,5803,0.63,71128.3,-13.63,-14.83,-14.69,0,*5D
1512932646.64,5804,0.63,71136.3,-13.63,-14.55,-14.65,0,*5D
1512932647.84,5805,0.63,71162.8,-13.63,-14.65,-14.69,0,*53
1512932649.08,5806,0.63,71162.0,-13.63,-14.43,-14.37,0,*5F
1512932650.35,5807,0.63,71070.3,-13.63,-13.97,-13.97,0,*5D
1512932651.62,5808,0.63,71040.5,-13.63,-14.05,-13.97,0,*5E
1512932652.88,5809,0.63,70994.3,-13.61,-14.89,-14.79,0,*5E
1512932654.14,5810,0.63,70960.3,-13.63,-14.97,-14.97,0,*5B
1512932655.42,5811,0.63,70950.5,-13.61,-15.01,-15.01,0,*58
1512932656.68,5812,0.63,70960.8,-13.61,-15.07,-15.01,0,*5D
1512932657.93,5813,0.63,70996.5,-13.63,-14.97,-14.97,0,*58
1512932659.19,5814,0.63,71018.3,-13.63,-14.97,-14.83,0,*5A
1512932660.48,5815,0.63,71044.3,-13.61,-14.79,-14.79,0,*5C
1512932661.73,5816,0.63,71032.3,-13.63,-14.93,-14.83,0,*5C
1512932662.99,5817,0.63,71042.0,-13.63,-14.93,-14.83,0,*5D
1512932664.25,5818,0.63,71058.0,-13.63,-14.97,-14.83,0,*56
1512932665.49,5819,0.63,71096.0,-13.63,-14.83,-14.65,0,*5A
1512932666.73,5820,0.63,71094.8,-13.63,-14.69,-14.55,0,*57
1512932667.99,5821,0.63,71086.8,-13.63,-14.79,-14.55,0,*57
1512932669.22,5822,0.63,71094.0,-13.63,-14.79,-14.69,0,*5B
1512932670.45,5823,0.63,71102.3,-13.63,-14.79,-14.69,0,*5A
1512932671.69,5824,0.63,71086.0,-13.63,-14.83,-14.69,0,*58
1512932672.95,5825,0.63,71090.5,-13.63,-14.83,-14.93,0,*5C
1512932674.19,5826,0.63,71084.0,-13.63,-15.07,-14.97,0,*56
1512932675.42,5827,0.63,71096.8,-13.63,-15.21,-15.11,0,*5C
1512932676.68,5828,0.63,71102.3,-13.63,-15.35,-15.35,0,*50
1512932677.92,5829,0.63,71102.8,-13.65,-15.53,-15.43,0,*56
1512932679.16,5830,0.63,71112.5,-13.65,-15.53,-15.39,0,*53
1512932680.43,5831,0.63,71114.0,-13.63,-15.39,-15.39,0,*58
1512932681.68,5832,0.56,71096.0,-13.63,-15.57,-15.49,0,*54
1512932682.92,5833,0.63,71130.5,-13.63,-15.67,-15.39,0,*51
1512932684.18,5834,0.63,71150.0,-13.63,-15.57,-15.39,0,*55
1512932685.42,5835,0.63,71130.8,-13.67,-15.15,-14.89,0,*5C
1512932686.67,5836,0.63,71124.8,-13.67,-14.97,-14.69,0,*5A
1512932687.94,5837,0.63,71092.5,-13.65,-14.83,-14.79,0,*5D
1512932689.16,5838,0.63,71076.5,-13.65,-15.21,-15.07,0,*53
1512932690.41,5839,0.63,71088.8,-13.67,-15.25,-15.25,0,*54
1512932691.67,5840,0.63,71096.8,-13.65,-14.79,-14.79,0,*58
1512932692.91,5841,0.63,71080.0,-13.65,-13.33,-13.19,0,*51
1512932694.15,5842,0.63,71076.8,-13.65,-13.93,-13.97,0,*5E
1512932695.41,5843,0.63,71068.5,-13.61,-14.51,-14.33,0,*5B
1512932696.68,5844,0.63,71054.8,-13.63,-14.47,-14.43,0,*5E
1512932697.91,5845,0.63,71050.3,-13.63,-14.65,-14.55,0,*58
1512932699.11,5846,0.63,71056.0,-13.63,-14.69,-14.69,0,*58
1512932700.37,5847,0.63,71062.8,-13.61,-14.79,-14.65,0,*56
1512932701.61,5848,0.63,71068.0,-13.63,-14.79,-14.65,0,*5B
1512932702.85,5849,0.63,71092.3,-13.63,-15.11,-14.97,0,*58
1512932704.05,5850,0.63,71072.0,-13.63,-15.11,-15.07,0,*58
1512932705.27,5851,0.63,71052.3,-13.63,-15.25,-15.11,0,*59
1512932706.53,5852,0.63,71076.3,-13.61,-15.15,-14.93,0,*50
1512932707.79,5853,0.63,71072.5,-13.61,-15.01,-14.89,0,*5F
1512932709.06,5854,0.63,71080.3,-13.61,-15.21,-15.01,0,*5B
1512932710.3,5855,0.63,71100.3,-13.63,-15.11,-14.83,0,*50
1512932711.55,5856,0.63,71112.8,-13.63,-15.21,-14.97,0,*55
1512932712.81,5857,0.63,71136.3,-13.63,-14.97,-14.83,0,*5D
1512932714.04,5858,0.63,71160.5,-13.63,-15.07,-14.93,0,*5B
1512932715.28,5859,0.63,71172.3,-13.63,-15.11,-14.93,0,*5D
1512932716.51,5860,0.63,71168.3,-13.63,-15.07,-14.93,0,*50
1512932717.74,5861,0.63,71152.3,-13.65,-15.07,-14.93,0,*57
1512932719.0,5862,0.63,71160.5,-13.63,-14.79,-14.55,0,*50
1512932720.27,5863,0.63,71164.8,-13.63,-14.51,-14.47,0,*58
1512932721.49,5864,0.63,71158.8,-13.63,-14.19,-14.11,0,*50
1512932722.75,5865,0.63,71148.5,-13.63,-14.55,-14.51,0,*5D
1512932724.02,5866,0.63,71124.0,-13.63,-14.55,-14.51,0,*5E
1512932725.31,5867,0.63,71100.3,-13.61,-14.51,-14.51,0,*59
1512932726.57,5868,0.63,71096.0,-13.63,-14.79,-14.83,0,*51
1512932727.83,5869,0.63,71104.5,-13.61,-14.75,-14.89,0,*54
1512932729.03,5870,0.63,71110.8,-13.63,-14.69,-14.69,0,*5D
1512932730.3,5871,0.63,71128.3,-13.63,-14.79,-14.79,0,*5C
1512932731.57,5872,0.63,71102.3,-13.61,-15.01,-15.21,0,*5F
1512932732.78,5873,0.63,71088.0,-13.63,-15.07,-15.11,0,*59
1512932734.01,5874,0.63,71082.8,-13.63,-14.97,-15.07,0,*51
1512932735.27,5875,0.63,71074.5,-13.63,-14.97,-14.97,0,*58
1512932736.55,5876,0.63,71044.0,-13.61,-14.93,-15.01,0,*53
1512932737.79,5877,0.63,71038.5,-13.63,-15.07,-15.21,0,*5E
1512932739.05,5878,0.63,71044.3,-13.63,-15.35,-15.21,0,*50
1512932740.25,5879,0.63,71056.8,-13.63,-15.11,-15.11,0,*54
1512932741.52,5880,0.63,71024.8,-13.67,-15.39,-15.25,0,*5B
1512932742.76,5881,0.63,71066.8,-13.65,-15.21,-15.25,0,*51
1512932743.99,5882,0.63,71042.0,-13.65,-15.21,-15.11,0,*55
1512932745.21,5883,0.63,71062.3,-13.65,-15.25,-15.25,0,*57
1512932746.5,5884,0.63,71062.0,-13.67,-15.43,-15.43,0,*52
1512932747.78,5885,0.63,71074.0,-13.67,-15.43,-15.43,0,*53
1512932749.08,5886,0.63,71070.5,-13.67,-15.43,-15.39,0,*5D
1512932750.34,5887,0.63,71076.3,-13.65,-15.39,-15.35,0,*5F
1512932751.57,5888,0.63,71068.0,-13.67,-15.53,-15.63,0,*5D
1512932752.86,5889,0.63,71054.0,-13.67,-15.43,-15.43,0,*5F
1512932754.15,5890,0.63,71052.0,-13.71,-15.43,-15.43,0,*50
1512932755.36,5891,0.63,71048.5,-13.69,-15.29,-15.29,0,*58
1512932756.6,5892,0.63,71060.8,-13.69,-15.39,-15.29,0,*5A
1512932757.87,5893,0.63,71066.0,-13.71,-15.57,-15.49,0,*5C
1512932759.12,5894,0.63,71088.0,-13.71,-15.49,-15.43,0,*5E
1512932760.36,5895,0.63,71122.0,-13.71,-15.49,-15.49,0,*55
1512932761.63,5896,0.63,71134.3,-13.71,-15.43,-15.29,0,*5A
1512932762.86,5897,0.63,71146.5,-13.71,-14.65,-14.65,0,*57
1512932764.11,5898,0.63,71146.5,-13.71,-14.61,-14.75,0,*5D
1512932765.34,5899,0.63,71124.8,-13.71,-14.29,-14.29,0,*59
1512932766.57,5900,0.63,71116.5,-13.71,-14.33,-14.29,0,*53
1512932767.8,5901,0.63,71096.5,-13.69,-14.55,-14.61,0,*57
1512932769.05,5902,0.63,71100.0,-13.71,-14.65,-14.75,0,*5B
1512932770.25,5903,0.63,71094.5,-13.69,-14.69,-14.69,0,*52
1512932771.51,5904,0.63,71104.3,-13.69,-14.83,-14.83,0,*55
1512932772.72,5905,0.63,71106.8,-13.69,-14.89,-14.89,0,*54
1512932773.97,5906,0.63,71098.5,-13.71,-15.01,-15.07,0,*58
1512932775.22,5907,0.63,71108.3,-13.69,-15.01,-14.97,0,*58
1512932776.48,5908,0.63,71106.8,-13.69,-14.83,-14.75,0,*50
1512932777.73,5909,0.63,71062.5,-13.69,-14.97,-14.83,0,*5D
1512932778.96,5910,0.63,71050.3,-13.69,-14.89,-14.75,0,*53
1512932780.19,5911,0.63,71026.5,-13.69,-14.89,-14.75,0,*52
1512932781.41,5912,0.63,71022.3,-13.69,-15.29,-15.25,0,*5E
1512932782.69,5913,0.63,70994.5,-13.71,-16.23,-16.23,0,*5A
1512932783.92,5914,0.63,70958.8,-13.71,-16.03,-16.03,0,*5D
1512932785.15,5915,0.63,70954.8,-13.71,-15.75,-15.67,0,*5F
1512932786.43,5916,0.63,70968.3,-13.71,-15.89,-15.89,0,*5F
1512932787.65,5917,0.63,70976.3,-13.77,-15.95,-15.95,0,*58
1512932788.88,5918,0.63,70968.0,-13.75,-15.63,-15.63,0,*55
1512932790.14,5919,0.63,70962.3,-13.75,-15.63,-15.57,0,*53
1512932791.35,5920,0.63,70996.3,-13.77,-15.71,-15.67,0,*5B
1512932792.56,5921,0.63,71022.0,-13.77,-15.63,-15.63,0,*5D
1512932793.78,5922,0.63,71042.8,-13.77,-15.53,-15.53,0,*5E
1512932794.99,5923,0.63,71050.8,-13.77,-15.53,-15.63,0,*5C
1512932796.2,5924,0.63,71048.8,-13.77,-15.63,-15.63,0,*58
1512932797.41,5925,0.63,71012.8,-13.77,-15.67,-15.63,0,*5D
1512932798.65,5926,0.63,71012.8,-13.79,-15.67,-15.71,0,*53
1512932799.89,5927,0.63,70980.0,-13.79,-15.53,-15.53,0,*55
1512932801.18,5928,0.63,71022.0,-13.79,-15.35,-15.35,0,*5A
1512932802.43,5929,0.63,71048.5,-13.81,-15.39,-15.29,0,*5D
1512932803.68,5930,0.63,71038.3,-13.81,-15.43,-15.29,0,*58
1512932804.97,5931,0.63,71056.0,-13.79,-14.83,-14.93,0,*53
1512932806.26,5932,0.63,71058.0,-13.79,-14.83,-14.79,0,*54
1512932807.55,5933,0.63,71090.5,-13.79,-14.79,-14.83,0,*55
1512932808.78,5934,0.63,71106.8,-13.81,-15.11,-15.01,0,*51
1512932810.02,5935,0.63,71106.0,-13.81,-14.89,-15.01,0,*50
1512932811.3,5936,0.63,71094.0,-13.79,-14.79,-14.79,0,*55
1512932812.58,5937,0.63,71106.8,-13.79,-14.97,-14.93,0,*50
1512932813.8,5938,0.63,71114.3,-13.81,-15.15,-15.11,0,*58
1512932815.01,5939,0.63,71110.5,-13.77,-15.07,-15.11,0,*53
1512932816.24,5940,0.63,71100.0,-13.77,-15.49,-15.35,0,*51
1512932817.49,5941,0.63,71068.5,-13.79,-15.49,-15.49,0,*55
1512932818.77,5942,0.63,71062.3,-13.79,-14.97,-14.97,0,*56
1512932820.05,5943,0.63,71072.5,-13.79,-14.93,-14.83,0,*56
1512932821.25,5944,0.63,71092.5,-13.77,-14.69,-14.69,0,*5E
1512932822.48,5945,0.63,71100.8,-13.81,-14.75,-14.69,0,*5B
1512932823.75,5946,0.63,71100.3,-13.77,-14.83,-14.83,0,*5C
1512932825.02,5947,0.63,71138.5,-13.77,-14.83,-14.93,0,*5C
1512932826.27,5948,0.63,71150.0,-13.77,-14.97,-14.97,0,*52
1512932827.53,5949,0.63,71156.5,-13.77,-14.97,-14.97,0,*53
1512932828.79,5950,0.63,71172.5,-13.75,-14.93,-14.89,0,*52
1512932830.02,5951,0.63,71136.3,-13.77,-13.33,-13.23,0,*5B
1512932831.23,5952,0.63,71118.5,-13.77,-13.73,-13.55,0,*5D
1512932832.47,5953,0.63,71094.0,-13.75,-14.19,-14.19,0,*5A
1512932833.77,5954,0.63,71080.8,-13.71,-14.47,-14.47,0,*59
1512932835.02,5955,0.63,71068.3,-13.71,-14.61,-14.55,0,*5F
1512932836.28,5956,0.63,71054.5,-13.71,-14.61,-14.55,0,*5C
1512932837.54,5957,0.63,71042.0,-13.69,-14.55,-14.55,0,*53
1512932838.79,5958,0.63,71040.3,-13.69,-14.83,-14.75,0,*55
1512932840.0,5959,0.63,71024.3,-13.69,-14.89,-14.89,0,*5D
1512932841.24,5960,0.63,71024.8,-13.71,-15.15,-15.15,0,*5E
1512932842.52,5961,0.63,71030.8,-13.71,-15.43,-15.35,0,*5E
1512932843.8,5962,0.63,71038.5,-13.71,-15.35,-15.35,0,*5C
1512932845.01,5963,0.63,71040.8,-13.69,-15.29,-15.11,0,*5F
1512932846.26,5964,0.63,71050.5,-13.71,-15.21,-15.15,0,*5D
1512932847.49,5965,0.63,71066.8,-13.71,-15.29,-15.15,0,*54
1512932848.75,5966,0.63,71058.8,-13.71,-15.35,-15.15,0,*5A
1512932850.03,5967,0.63,71072.5,-13.71,-15.35,-15.21,0,*5C
1512932851.26,5968,0.63,71074.5,-13.71,-15.29,-15.07,0,*5A
1512932852.5,5969,0.63,71090.0,-13.71,-15.15,-14.89,0,*53
1512932853.75,5970,0.63,71042.0,-13.71,-15.35,-15.07,0,*5E
1512932855.01,5971,0.63,71052.5,-13.71,-15.35,-15.07,0,*5F
1512932856.26,5972,0.63,71082.5,-13.71,-15.15,-14.79,0,*56
1512932857.49,5973,0.63,71086.5,-13.69,-15.01,-14.61,0,*52
1512932858.76,5974,0.63,71080.3,-13.71,-14.93,-14.75,0,*53
1512932859.99,5975,0.63,71074.5,-13.71,-14.89,-14.65,0,*58
1512932861.28,5976,0.63,71024.8,-13.71,-12.75,-12.57,0,*59
1512932862.51,5977,0.63,71058.5,-13.69,-11.45,-11.33,0,*50
1512932863.77,5978,0.63,71090.5,-13.65,-12.53,-12.61,0,*53
1512932865.02,5979,0.63,71132.8,-13.65,-13.37,-13.19,0,*5F
1512932866.25,5980,0.63,71094.3,-13.63,-13.33,-13.11,0,*53
1512932867.48,5981,0.63,71104.3,-13.61,-13.65,-13.65,0,*50
1512932868.75,5982,0.63,71090.0,-13.61,-14.47,-14.29,0,*5B
1512932870.02,5983,0.63,71052.3,-13.61,-14.47,-14.33,0,*51
1512932871.32,5984,0.63,71028.5,-13.61,-14.47,-14.47,0,*55
1512932872.56,5985,0.63,71040.0,-13.61,-14.29,-14.15,0,*5B
1512932873.86,5986,0.63,71078.8,-13.57,-14.01,-13.97,0,*5A
1512932875.07,5987,0.63,71038.0,-13.59,-14.33,-14.33,0,*5D
1512932876.34,5988,0.63,71064.5,-13.59,-14.05,-13.87,0,*5F
1512932877.55,5989,0.63,71042.8,-13.59,-14.29,-14.29,0,*53
1512932878.79,5990,0.63,71074.0,-13.53,-14.37,-14.37,0,*51
1512932880.02,5991,0.63,71056.0,-13.57,-14.69,-14.69,0,*54
1512932881.25,5992,0.63,71052.3,-13.55,-14.61,-14.75,0,*50
1512932882.49,5993,0.63,71080.0,-13.59,-14.75,-14.65,0,*59
1512932883.75,5994,0.63,71068.3,-13.59,-14.47,-14.43,0,*5B
1512932885.05,5995,0.63,71096.5,-13.57,-13.87,-14.01,0,*59
1512932886.27,5996,0.63,71102.5,-13.55,-14.75,-14.69,0,*5C
1512932887.53,5997,0.63,71084.0,-13.55,-14.75,-14.75,0,*50
1512932888.73,5998,0.63,71090.3,-13.55,-14.61,-14.61,0,*5F
1512932889.93,5999,0.63,71088.3,-13.55,-14.69,-14.61,0,*56
1512932891.2,6000,0.63,71074.5,-13.57,-14.89,-14.75,0,*55
1512932892.43,6001,0.63,71076.8,-13.55,-15.25,-15.01,0,*53
1512932893.64,6002,0.63,71084.8,-13.55,-15.29,-15.11,0,*5D
1512932894.86,6003,0.63,71064.0,-13.55,-15.29,-15.15,0,*58
1512932896.12,6004,0.63,71066.8,-13.57,-15.15,-15.01,0,*57
1512932897.41,6005,0.63,71080.3,-13.57,-14.75,-14.55,0,*51
1512932898.65,6006,0.63,71088.3,-13.59,-14.61,-14.51,0,*5D
1512932899.92,6007,0.63,71080.5,-13.57,-14.43,-14.29,0,*5D
1512932901.13,6008,0.63,71084.3,-13.55,-14.23,-14.15,0,*59
1512932902.42,6009,0.63,71086.0,-13.53,-14.05,-14.05,0,*5B
1512932903.64,6010,0.63,71078.3,-13.55,-14.23,-14.15,0,*50
1512932904.92,6011,0.63,71082.0,-13.53,-14.43,-14.43,0,*52
1512932906.19,6012,0.63,71074.3,-13.55,-14.43,-14.47,0,*53
1512932907.45,6013,0.63,71068.0,-13.55,-14.43,-14.47,0,*52